Location: Unspecified
(43.4354°N, 0.0000°E)
Time: 06:02:46
(UTC+00:00)

A-11 Canister half - Pass Details

Date: 28 June 2019
Orbit: 1515 x 1685 km, 47.2° (Epoch: 15 July)

Event Time Altitude Azimuth Distance (km) Brightness Sun altitude
Rises 17:30:56 0° 286° (WNW) 4,759 13.1 21.4°
Reaches altitude 10° 17:36:38 10° 260° (W) 3,732 12.5 20.4°
Maximum altitude 17:39:56 12° 238° (WSW) 3,528 11.7 19.8°
Drops below altitude 10° 17:43:12 10° 217° (SW) 3,690 11.4 19.3°
Sets 17:48:48 0° 190° (S) 4,648 11.5 18.3°
